TimePST,TemperatureF,Dew PointF,Humidity,Sea Level PressureIn,VisibilityMPH,Wind Direction,Wind SpeedMPH,Gust SpeedMPH,PrecipitationIn,Events,Conditions,WindDirDegrees,DateUTC
12:12 AM,37.4,35.6,93,30.32,2.5,SSE,3.5,-,0.00,,Scattered Clouds,160,2013-03-01 08:12:00
12:22 AM,37.4,35.6,93,30.32,2.0,Calm,Calm,-,0.00,,Scattered Clouds,0,2013-03-01 08:22:00
12:25 AM,37.4,35.6,93,30.32,1.5,Calm,Calm,-,0.00,,Mostly Cloudy,0,2013-03-01 08:25:00
12:29 AM,37.4,33.8,87,30.32,0.8,ESE,3.5,-,0.00,,Mostly Cloudy,120,2013-03-01 08:29:00
12:47 AM,37.4,33.8,87,30.32,1.2,East,5.8,-,0.00,,Overcast,80,2013-03-01 08:47:00
12:51 AM,37.4,33.8,87,30.32,0.8,East,5.8,-,0.00,,Overcast,80,2013-03-01 08:51:00
12:53 AM,37.0,33.1,86,30.35,0.5,East,6.9,-,0.00,Fog,Fog,80,2013-03-01 08:53:00
1:53 AM,37.0,34.0,89,30.36,1.0,NE,5.8,-,N/A,,Overcast,40,2013-03-01 09:53:00
2:00 AM,37.4,33.8,87,30.32,1.8,NNE,3.5,-,N/A,,Overcast,30,2013-03-01 10:00:00
2:27 AM,39.2,35.6,87,30.32,3.0,North,3.5,-,N/A,,Overcast,360,2013-03-01 10:27:00
2:53 AM,39.0,35.1,86,30.35,2.0,Calm,Calm,-,N/A,,Overcast,0,2013-03-01 10:53:00
3:39 AM,39.2,35.6,87,30.31,1.0,WSW,3.5,-,N/A,,Overcast,250,2013-03-01 11:39:00
4:27 AM,37.4,35.6,93,30.31,0.2,ESE,3.5,-,N/A,Fog,Fog,110,2013-03-01 12:27:00
4:40 AM,37.4,33.8,87,30.31,0.2,ESE,3.5,-,N/A,Fog,Fog,110,2013-03-01 12:40:00
4:44 AM,37.4,33.8,87,30.31,0.2,East,4.6,-,N/A,Fog,Fog,100,2013-03-01 12:44:00
4:53 AM,37.0,33.1,86,30.35,0.2,East,3.5,-,N/A,Fog,Fog,90,2013-03-01 12:53:00
5:34 AM,37.4,33.8,87,30.31,1.0,ENE,3.5,-,N/A,,Overcast,70,2013-03-01 13:34:00
5:37 AM,37.4,33.8,87,30.31,1.0,East,3.5,-,N/A,,Overcast,80,2013-03-01 13:37:00
5:40 AM,37.4,33.8,87,30.30,1.2,ENE,3.5,-,N/A,,Overcast,70,2013-03-01 13:40:00
5:53 AM,37.9,34.0,86,30.34,1.5,NE,3.5,-,N/A,,Overcast,40,2013-03-01 13:53:00
6:11 AM,37.4,35.6,93,30.31,2.0,Calm,Calm,-,N/A,,Overcast,0,2013-03-01 14:11:00
6:31 AM,37.4,33.8,87,30.30,1.8,Calm,Calm,-,N/A,,Overcast,0,2013-03-01 14:31:00
6:53 AM,37.9,35.1,89,30.34,1.2,Calm,Calm,-,N/A,,Overcast,0,2013-03-01 14:53:00
6:58 AM,37.4,35.6,93,30.30,0.8,Calm,Calm,-,N/A,,Overcast,0,2013-03-01 14:58:00
7:34 AM,39.2,35.6,87,30.30,0.8,Calm,Calm,-,N/A,,Overcast,0,2013-03-01 15:34:00
7:53 AM,39.0,35.1,86,30.34,0.8,Calm,Calm,-,N/A,,Mostly Cloudy,0,2013-03-01 15:53:00
8:01 AM,39.2,35.6,87,30.30,1.0,Calm,Calm,-,N/A,,Mostly Cloudy,0,2013-03-01 16:01:00
8:09 AM,39.2,35.6,87,30.30,1.5,Calm,Calm,-,N/A,,Mostly Cloudy,0,2013-03-01 16:09:00
8:50 AM,39.2,35.6,87,30.31,1.2,Calm,Calm,-,N/A,,Mostly Cloudy,0,2013-03-01 16:50:00
9:15 AM,42.8,37.4,81,30.31,2.5,Calm,Calm,-,N/A,,Haze,0,2013-03-01 17:15:00
9:24 AM,42.8,37.4,81,30.31,3.0,South,3.5,-,N/A,,Haze,180,2013-03-01 17:24:00
9:53 AM,45.0,39.0,80,30.35,7.0,South,4.6,-,N/A,,Overcast,180,2013-03-01 17:53:00
10:53 AM,48.0,39.9,74,30.34,8.0,SE,3.5,-,N/A,,Mostly Cloudy,140,2013-03-01 18:53:00
11:53 AM,53.1,43.0,69,30.32,8.0,SSE,3.5,-,N/A,,Mostly Cloudy,160,2013-03-01 19:53:00
12:53 PM,55.9,42.1,60,30.32,10.0,Calm,Calm,-,N/A,,Overcast,0,2013-03-01 20:53:00
1:53 PM,62.1,42.1,48,30.30,10.0,NW,20.7,-,N/A,,Clear,310,2013-03-01 21:53:00
2:53 PM,62.1,41.0,46,30.29,10.0,NW,16.1,21.9,N/A,,Scattered Clouds,310,2013-03-01 22:53:00
3:53 PM,62.1,39.9,44,30.28,10.0,WNW,17.3,-,N/A,,Clear,300,2013-03-01 23:53:00
4:53 PM,59.0,39.9,49,30.29,10.0,WNW,12.7,-,N/A,,Clear,300,2013-03-02 00:53:00
5:53 PM,52.0,39.0,61,30.29,10.0,WNW,9.2,-,N/A,,Clear,300,2013-03-02 01:53:00
6:53 PM,51.1,39.0,63,30.29,10.0,NNW,9.2,-,N/A,,Clear,330,2013-03-02 02:53:00
7:53 PM,48.0,37.9,68,30.30,10.0,NW,4.6,-,N/A,,Clear,310,2013-03-02 03:53:00
8:53 PM,46.0,37.9,73,30.30,10.0,WNW,11.5,-,N/A,,Clear,300,2013-03-02 04:53:00
9:53 PM,45.0,37.0,74,30.28,10.0,NW,12.7,-,N/A,,Clear,310,2013-03-02 05:53:00
10:53 PM,43.0,36.0,76,30.28,10.0,NW,10.4,-,N/A,,Clear,310,2013-03-02 06:53:00
11:53 PM,44.1,35.1,71,30.27,10.0,NW,10.4,-,N/A,,Clear,310,2013-03-02 07:53:00